Folgueroles





Hora UTC 16:50
Temperatura 5.9 ºC
Humedad 88.0 %
Presión 1015.4 hPa
Pluja 0.0 mm
Velocidad viento 0.0 km/h
Dirección viento WNW

Datos diarios 2021-12-04



Hora UTC (invierno +1h; verano +2h)
Temperatura (ºC) Humedad (%) Presión (hPa) Velocidad viento (km/h) Precipitación (mm)
Hora UTC Aire Humedad Presión Vel. Dir. Vel. Max Dir. Intent. máx 5 min.
00:05 1.6 86.0 1021.7 0.0 W 0.0 0.0
00:10 1.6 87.0 1021.7 1.6 W 1.6 0.0
00:15 1.6 87.0 1021.6 0.0 W 3.2 0.0
00:20 1.5 87.0 1021.5 0.0 W 3.2 0.0
00:25 1.6 87.0 1021.5 3.2 W 4.8 0.0
00:30 1.6 86.0 1021.5 0.0 W 4.8 0.0
00:35 1.6 86.0 1021.3 0.0 W 3.2 0.0
00:40 1.6 86.0 1021.2 0.0 W 0.0 0.0
00:45 1.4 86.0 1020.9 0.0 W 0.0 0.0
00:50 1.5 86.0 1020.8 3.2 W 3.2 0.0
00:55 1.5 86.0 1021.0 0.0 W 3.2 0.0
01:00 1.6 86.0 1020.9 0.0 W 3.2 0.0
01:05 1.4 85.0 1020.8 3.2 W 3.2 0.0
01:10 1.3 85.0 1020.7 0.0 W 3.2 0.0
01:15 1.3 86.0 1020.7 0.0 W 0.0 0.0
01:20 1.2 86.0 1020.6 1.6 W 3.2 0.0
01:25 1.1 86.0 1020.6 0.0 W 3.2 0.0
01:30 1.0 87.0 1020.7 0.0 W 1.6 0.0
01:35 1.0 86.0 1020.6 0.0 W 0.0 0.0
01:40 0.9 87.0 1020.7 0.0 W 0.0 0.0
01:45 0.8 87.0 1020.6 0.0 W 0.0 0.0
01:50 0.8 87.0 1020.6 0.0 W 0.0 0.0
01:55 0.8 87.0 1020.7 0.0 W 0.0 0.0
02:00 0.8 88.0 1020.6 1.6 W 3.2 0.0
02:05 0.9 88.0 1020.6 0.0 W 3.2 0.0
02:10 1.0 89.0 1020.6 0.0 W 1.6 0.0
02:15 1.0 88.0 1020.6 0.0 W 0.0 0.0
02:20 1.1 89.0 1020.5 0.0 SW 3.2 0.0
02:25 1.2 89.0 1020.5 0.0 SSW 3.2 0.0
02:30 1.2 89.0 1020.5 0.0 SSW 0.0 0.0
02:35 1.2 88.0 1020.6 0.0 SSW 0.0 0.0
02:40 1.2 89.0 1020.5 0.0 SSW 0.0 0.0
02:45 1.1 89.0 1020.5 0.0 SSW 0.0 0.0
02:50 1.1 89.0 1020.4 0.0 SSW 0.0 0.0
02:55 1.1 89.0 1020.3 0.0 SSW 0.0 0.0
03:00 1.0 89.0 1020.3 0.0 SSW 0.0 0.0
03:05 1.1 90.0 1020.1 0.0 SSW 0.0 0.0
03:10 1.1 90.0 1020.1 0.0 SSW 0.0 0.0
03:15 1.2 90.0 1020.1 0.0 SSW 0.0 0.0
03:20 1.2 90.0 1020.1 0.0 SSW 0.0 0.0
03:25 1.2 90.0 1020.0 0.0 SSW 0.0 0.0
03:30 1.3 91.0 1020.0 0.0 SSW 0.0 0.0
03:35 1.5 91.0 1020.1 0.0 SSW 0.0 0.0
03:40 1.8 92.0 1019.9 0.0 SSW 0.0 0.0
03:45 2.2 92.0 1019.8 0.0 SSW 0.0 0.0
03:50 2.5 92.0 1019.7 0.0 SSW 0.0 0.0
03:55 2.8 92.0 1019.5 0.0 SSW 0.0 0.0
04:00 2.9 92.0 1019.5 0.0 SSW 0.0 0.0
04:05 3.0 92.0 1019.4 0.0 SSW 0.0 0.0
04:10 3.1 92.0 1019.4 0.0 SSW 0.0 0.0
04:15 3.1 91.0 1019.4 1.6 SW 1.6 0.0
04:20 2.8 90.0 1019.3 4.8 W 9.7 0.0
04:25 2.3 88.0 1019.4 0.0 W 9.7 0.0
04:30 2.1 88.0 1019.4 0.0 W 6.4 0.0
04:35 1.9 88.0 1019.3 0.0 W 1.6 0.0
04:40 1.7 88.0 1019.6 4.8 W 4.8 0.0
04:45 1.6 88.0 1019.4 1.6 W 4.8 0.0
04:50 1.5 88.0 1019.5 0.0 W 4.8 0.0
04:55 1.4 89.0 1019.4 0.0 W 1.6 0.0
05:00 1.4 89.0 1019.3 0.0 W 1.6 0.0
05:05 1.4 89.0 1019.2 0.0 W 0.0 0.0
05:10 1.4 89.0 1019.2 4.8 W 4.8 0.0
05:15 1.5 89.0 1019.4 6.4 W 6.4 0.0
05:20 1.6 89.0 1019.4 1.6 W 9.7 0.0
05:25 1.6 89.0 1019.6 4.8 W 9.7 0.0
05:30 1.7 89.0 1019.7 3.2 W 6.4 0.0
05:35 1.7 88.0 1019.6 0.0 W 4.8 0.0
05:40 1.7 88.0 1019.6 0.0 W 3.2 0.0
05:45 1.7 88.0 1019.8 0.0 W 3.2 0.0
05:50 1.6 88.0 1019.7 0.0 W 3.2 0.0
05:50 1.6 89.0 1019.6 0.0 W 0.0 0.0
06:00 1.6 88.0 1019.7 0.0 W 0.0 0.0
06:05 1.6 88.0 1019.5 0.0 W 0.0 0.0
06:10 1.6 89.0 1019.4 0.0 W 0.0 0.0
06:15 1.7 89.0 1019.4 0.0 W 3.2 0.0
06:20 1.8 89.0 1019.4 0.0 W 3.2 0.0
06:25 1.8 89.0 1019.2 0.0 W 3.2 0.0
06:30 1.9 89.0 1019.4 4.8 W 4.8 0.0
06:35 1.9 89.0 1019.5 1.6 W 6.4 0.0
06:40 1.9 89.0 1019.3 0.0 W 6.4 0.0
06:45 1.9 88.0 1019.3 1.6 W 4.8 0.0
06:50 1.9 88.0 1019.4 4.8 W 4.8 0.0
06:55 1.9 88.0 1019.3 0.0 W 4.8 0.0
07:00 1.9 88.0 1019.1 0.0 W 3.2 0.0
07:05 1.8 88.0 1019.0 0.0 W 4.8 0.0
07:10 1.8 88.0 1019.1 0.0 W 3.2 0.0
07:15 1.9 88.0 1019.1 3.2 W 4.8 0.0
07:20 1.9 88.0 1019.0 0.0 W 9.7 0.0
07:20 1.9 88.0 1019.2 3.2 W 9.7 0.0
07:30 2.0 88.0 1019.1 4.8 W 6.4 0.0
07:35 2.1 88.0 1019.0 0.0 W 9.7 0.0
07:40 2.1 88.0 1019.1 0.0 W 9.7 0.0
07:45 2.1 88.0 1019.0 1.6 W 4.8 0.0
07:50 2.1 87.0 1019.1 0.0 W 3.2 0.0
07:55 2.2 88.0 1019.0 0.0 W 3.2 0.0
08:00 2.3 88.0 1019.0 0.0 W 0.0 0.0
08:05 2.3 88.0 1018.9 0.0 W 0.0 0.0
08:10 2.4 88.0 1018.9 0.0 WSW 4.8 0.0
08:15 2.6 88.0 1019.0 0.0 WSW 4.8 0.0
08:15 2.6 88.0 1018.9 0.0 WSW 3.2 0.0
08:25 2.8 89.0 1018.9 0.0 WSW 3.2 0.0
08:30 2.9 89.0 1018.9 0.0 WSW 1.6 0.0
08:35 3.1 89.0 1018.7 0.0 WSW 1.6 0.0
08:35 3.3 90.0 1018.8 0.0 WSW 1.6 0.0
08:40 3.4 90.0 1018.5 0.0 WSW 0.0 0.0
08:45 3.6 90.0 1018.4 0.0 WSW 0.0 0.0
08:50 3.8 90.0 1018.3 0.0 WSW 0.0 0.0
08:55 3.9 90.0 1018.3 1.6 WSW 1.6 0.0
09:00 4.1 90.0 1018.3 0.0 WSW 4.8 0.0
09:05 4.3 90.0 1018.1 0.0 WSW 4.8 0.0
09:10 4.4 90.0 1018.1 0.0 WSW 4.8 0.0
09:15 4.6 90.0 1018.1 1.6 WNW 4.8 0.0
09:20 4.8 90.0 1018.2 4.8 N 8.0 0.0
09:25 4.9 89.0 1018.3 8.0 NNE 8.0 0.0
09:30 4.9 89.0 1018.3 1.6 NNE 8.0 0.0
09:35 4.9 89.0 1018.4 3.2 NNE 6.4 0.0
09:40 5.0 89.0 1018.3 3.2 NNE 6.4 0.0
09:50 5.1 89.0 1018.3 6.4 NNE 8.0 0.0
09:55 5.2 88.0 1018.1 4.8 NE 9.7 0.0
10:00 5.2 88.0 1018.0 1.6 NE 9.7 0.0
10:05 5.4 88.0 1018.0 6.4 NE 9.7 0.0
10:10 5.5 87.0 1018.0 6.4 NNE 9.7 0.0
10:15 5.8 87.0 1017.9 4.8 NE 9.7 0.0
10:20 5.9 87.0 1017.8 6.4 NE 9.7 0.0
10:25 6.0 86.0 1017.6 6.4 ENE 9.7 0.0
10:30 6.2 86.0 1017.5 1.6 ENE 9.7 0.0
10:35 6.4 86.0 1017.5 3.2 N 6.4 0.0
10:40 6.7 86.0 1017.5 6.4 NNE 8.0 0.0
10:45 7.1 85.0 1017.3 3.2 NNE 11.3 0.0
10:50 7.4 85.0 1017.3 6.4 NNE 11.3 0.0
10:55 7.6 83.0 1017.2 4.8 NNE 11.3 0.0
11:00 7.8 83.0 1017.3 8.0 NE 11.3 0.0
11:05 7.8 82.0 1017.1 6.4 NNE 12.9 0.0
11:10 7.8 82.0 1017.0 6.4 NE 14.5 0.0
11:15 7.7 82.0 1017.0 8.0 ENE 14.5 0.0
11:20 7.7 84.0 1016.7 12.9 NNE 14.5 0.0
11:25 7.9 83.0 1016.7 8.0 NNE 14.5 0.0
11:30 8.1 82.0 1016.7 9.7 NE 12.9 0.0
11:35 8.1 83.0 1016.5 4.8 NNE 12.9 0.0
11:40 8.2 83.0 1016.5 6.4 N 12.9 0.0
11:45 8.2 82.0 1016.6 4.8 NE 12.9 0.0
11:50 8.2 83.0 1016.5 4.8 NNE 12.9 0.0
11:55 8.2 82.0 1016.2 3.2 NNE 9.7 0.0
12:00 8.2 81.0 1016.3 4.8 NE 9.7 0.0
12:05 8.1 82.0 1016.2 6.4 NE 9.7 0.0
12:10 8.1 82.0 1016.1 4.8 ENE 9.7 0.0
12:15 8.1 81.0 1016.0 6.4 ENE 9.7 0.0
12:20 8.1 82.0 1015.3 4.8 ENE 9.7 0.0
12:25 8.2 81.0 1015.3 8.0 ENE 11.3 0.0
12:30 8.2 81.0 1015.5 6.4 ENE 11.3 0.0
12:35 8.3 81.0 1015.7 0.0 ENE 6.4 0.0
12:40 8.5 81.0 1015.5 0.0 NW 6.4 0.0
12:45 8.6 80.0 1015.4 3.2 WNW 6.4 0.0
12:50 8.7 80.0 1015.3 0.0 WNW 6.4 0.0
12:55 8.8 80.0 1015.4 1.6 WNW 6.4 0.0
13:00 8.8 80.0 1015.8 1.6 WNW 6.4 0.0
13:05 8.8 80.0 1015.7 0.0 WNW 6.4 0.0
13:05 8.7 79.0 1016.0 1.6 WNW 4.8 0.0
13:15 8.7 80.0 1015.5 1.6 WNW 4.8 0.0
13:20 8.7 80.0 1015.7 0.0 WNW 3.2 0.0
13:25 8.6 80.0 1015.6 0.0 WNW 3.2 0.0
13:30 8.6 81.0 1015.5 0.0 WNW 3.2 0.0
13:35 8.5 81.0 1015.3 1.6 WNW 3.2 0.0
13:40 8.4 80.0 1015.3 0.0 WNW 3.2 0.0
13:45 8.4 81.0 1015.4 1.6 WNW 4.8 0.0
13:50 8.3 81.0 1015.4 0.0 WNW 4.8 0.0
13:55 8.3 82.0 1015.6 3.2 WNW 4.8 0.0
14:00 8.3 82.0 1015.7 1.6 WNW 4.8 0.0
14:05 8.2 82.0 1015.2 0.0 WNW 4.8 0.0
14:10 8.2 82.0 1015.2 0.0 WNW 3.2 0.0
14:15 8.2 83.0 1015.2 0.0 WNW 3.2 0.0
14:20 8.1 83.0 1015.2 0.0 WNW 0.0 0.0
14:25 8.1 83.0 1015.2 0.0 WNW 0.0 0.0
14:30 8.1 83.0 1015.2 0.0 WNW 0.0 0.0
14:35 8.0 83.0 1014.8 0.0 WNW 0.0 0.0
14:40 7.9 83.0 1014.8 0.0 WNW 0.0 0.0
14:45 7.9 83.0 1014.9 0.0 WNW 0.0 0.0
14:50 7.9 84.0 1014.8 0.0 WNW 0.0 0.0
14:55 7.9 83.0 1014.9 0.0 WNW 0.0 0.0
15:00 7.9 84.0 1015.1 0.0 WNW 0.0 0.0
15:05 7.8 83.0 1015.2 0.0 WNW 0.0 0.0
15:10 7.8 83.0 1015.0 0.0 WNW 0.0 0.0
15:15 7.8 84.0 1014.9 0.0 WNW 0.0 0.0
15:20 7.7 84.0 1015.1 0.0 WNW 0.0 0.0
15:25 7.6 85.0 1015.1 0.0 WNW 0.0 0.0
15:30 7.4 85.0 1015.0 0.0 WNW 0.0 0.0
15:35 7.3 85.0 1015.0 0.0 WNW 0.0 0.0
15:40 7.3 85.0 1015.1 0.0 WNW 0.0 0.0
15:45 7.1 86.0 1015.1 0.0 WNW 0.0 0.0
15:50 7.0 86.0 1015.1 0.0 WNW 0.0 0.0
15:55 6.9 86.0 1015.3 0.0 WNW 0.0 0.0
16:00 6.8 86.0 1015.3 0.0 WNW 0.0 0.0
16:05 6.7 86.0 1015.4 0.0 WNW 0.0 0.0
16:10 6.5 86.0 1015.4 0.0 WNW 0.0 0.0
16:15 6.3 86.0 1015.4 0.0 WNW 0.0 0.0
16:20 6.2 87.0 1015.3 0.0 WNW 0.0 0.0
16:25 6.2 88.0 1015.3 0.0 WNW 0.0 0.0
16:30 6.2 88.0 1015.3 0.0 WNW 0.0 0.0
16:35 6.1 88.0 1015.4 0.0 WNW 0.0 0.0
16:40 6.1 88.0 1015.4 0.0 WNW 0.0 0.0
16:45 6.1 88.0 1015.4 0.0 WNW 0.0 0.0
16:50 5.9 88.0 1015.4 0.0 WNW 0.0 0.0
Máxima 8.8 92.0 1021.7 12.9 NNE 14.5 0.0
Mínima 0.8 79.0 1014.8
Total 0.0